星链-5522 (STARLINK-5522 )

导读

STARLINK-5522是美国太空探索技术公司Starlink(星链)星座的成员,于2023年5月10日发射入轨,隶属于星链互联网卫星组网项目。作为低轨卫星,它主要承担提供全球卫星互联网接入服务的任务,服务地面移动通信、偏远区域网络覆盖等场景,是星链大规模组网进程中的一颗任务卫星。

Basic Information
目录编号:
56498
目录名称:
STARLINK-5522
国际标识:
2023-064BC
轨道中心:
EARTH
卫星名称:
星链-5522
卫星全名:
星链-5522 (STARLINK-5522 )
卫星状态:
在轨 (已飞行1132 天)
发射日期:
2023-05-10 UTC
国别 :
美国 (US)
星等 :
--
Orbit Information
数据来源 国际轨道数据 AOE轨道数据
星历时间 2026-06-15T05:23:30+0800
8小时前
查看轨道信息
2026-06-14T02:00:00+0800
1天前
查看轨道信息
半长轴 6950.194km 6950.162km
偏心率 0.0003421 0.0003447
轨道倾角 69.999° 69.998°
近地点辐角 269.289° 272.825°
升交点赤经 219.320° 222.196°
平近点角 90.788° 52.762°
近地点 569.679km 569.629km
远地点 574.435km 574.421km
周期 96.107分钟 96.106分钟
每日圈数 14.983297 14.983401
Detailed Information
固有亮度:
5
最大亮度:
2.5
卫星平台:
Starlink v1.5
覆盖范围:
全球
运营商:
太空探索技术公司
运营商所在国:
美国
制造商(研发单位):
太空探索技术公司
制造商所在国:
美国
使用方式:
暂无
Satellite Introduction
星链(Starlink)计划是由太空探索技术公司(SpaceX)提出的一个巨型低轨卫星互联网星座项目,计划在2019年至2024年间在太空搭建由约1.2万颗卫星组成的“星链”网络,其中1584颗将部署在地球上空550千米处的近地轨道,并从2020年开始工作。该卫星仍在工作。
2D Orbit Map
3D Orbit Map
Orbit Altitude Analysis Chart
Orbit Inclination Analysis Chart
Orbit Comprehensive Analysis Chart
View Comprehensive Chart